Find Starlink 32937

NORAD ID: 63148 Int'l Des: 2025-043 Owner: SPXS Country: US Constellation: starlink operational
LEOCIRCULAR

实时位置

正在加载3D地球...

关于 Starlink 32937

正在加载描述...

即将过境

Passes for default location (London). Set your location on the main map for personalized predictions.

高度历史

Loading altitude history...

两行轨道根数

1 63148U 25043S 26126.16815003 .00025304 00000-0 92522-3 0 9994
2 63148 43.0034 51.5633 0001294 270.5528 89.5175 15.27604832 66157
Epoch: May 6, 2026 • Age: 6 hours

当前状态

高度 487.9 km
速度 7.62 km/s
星下点 -23.15°S, 112.11°W
发射日期 Mar 3, 2025
运行时间 1.1 years
类型 internet

技术详情

分类 Payload
质量 730.00 kg
干质量 700.00 kg
总质量 730.00 kg
长度 0.30 m
直径 4.10 m
跨度 29.00 m
形状 Box + pan
制造商 SPXS
平台类型 Starlink V2M
阶段状态 In Orbit
所有者/国家 SPXS/US

Most Searched